Starlink 2547

operational
NORAD ID: 48286 Int'l Des: 2021-036 Owner: SPXS Country: US Constellation: starlink
LEOCIRCULAR

About Starlink 2547

Description loading...

Live Position

Loading 3D Globe...

Upcoming Passes

Altitude History

Altitude vs Time

uPlot chart will show altitude changes over time

Two-Line Element Set

1 48286U 21036L 26071.23692786 .00001297 00000-0 55942-4 0 9997
2 48286 53.1605 63.6224 0001310 80.4322 279.6827 15.30180851268792
Epoch: Mar 12, 2026 • Age: 41 hours

Current Status

Altitude 494.6 km
Velocity 7.62 km/s
Sub-Earth Point -53.05°S, 97.26°W
Launch Date Apr 29, 2021
Age 4.8 years
Type internet

Technical Details

Classification Payload
Mass 260.00 kg
Dry Mass 248.00 kg
Total Mass 260.00 kg
Length 0.20 m
Diameter 2.80 m
Span 9.00 m
Shape Box + pan
Manufacturer SPXS
Bus Type Starlink
Phase Status In Orbit
Owner/State SPXS/US

Large Constellations

Loading constellations...